This is the latest recevied weather packets stored in our database for station/object K4CRS-13. If no packets are shown the sender has not sent any weather packets the latest 10 day(s).
| Time | Temp. | Humidity | Pressure | Rain* | Wind** | Luminosity | Snow |
|---|---|---|---|---|---|---|---|
| 1788116356 | 33.33° C | 54% | 1054.5 hPa | 0 mm | - | 779 W/m² | - |
| 1788116051 | 33.33° C | 58% | 1054.6 hPa | 0 mm | - | 166 W/m² | - |
| 1788115746 | 34.44° C | 55% | 1054.5 hPa | 0 mm | - | 652 W/m² | - |
| 1788115445 | 33.33° C | 56% | 1054.6 hPa | 0 mm | - | 218 W/m² | - |
| 1788115140 | 31.67° C | 60% | 1054.7 hPa | 0 mm | - | 823 W/m² | - |
| 1788114840 | 32.22° C | 60% | 1054.5 hPa | 0 mm | - | 186 W/m² | - |
| 1788114535 | 32.22° C | 59% | 1054.9 hPa | 0 mm | - | 636 W/m² | - |
| 1788114231 | 33.33° C | 56% | 1054.7 hPa | 0 mm | - | 832 W/m² | - |
| 1788113927 | 35° C | 50% | 1054.8 hPa | 0 mm | - | 173 W/m² | - |
| 1788113622 | 34.44° C | 56% | 1054.8 hPa | 0 mm | - | 883 W/m² | - |
| 1788113317 | 34.44° C | 56% | 1055 hPa | 0 mm | - | 870 W/m² | - |
| 1788113016 | 33.33° C | 57% | 1055 hPa | 0 mm | - | 872 W/m² | - |
| 1788112716 | 32.78° C | 61% | 1055.3 hPa | 0 mm | - | 843 W/m² | - |
| 1788112410 | 32.78° C | 61% | 1055.3 hPa | 0 mm | - | 762 W/m² | - |
| 1788112106 | 33.33° C | 59% | 1055 hPa | 0 mm | - | 180 W/m² | - |
| 1788111801 | 32.78° C | 59% | 1055.3 hPa | 0 mm | - | 900 W/m² | - |
| 1788111501 | 33.33° C | 61% | 1055.1 hPa | 0 mm | - | 183 W/m² | - |
| 1788111197 | 34.44° C | 58% | 1055.3 hPa | 0 mm | - | 479 W/m² | - |
| 1788110893 | 32.78° C | 58% | 1055.4 hPa | 0 mm | - | 875 W/m² | - |
| 1788110589 | 32.78° C | 62% | 1055.5 hPa | 0 mm | - | 842 W/m² | - |
| 1788110285 | 33.33° C | 61% | 1055.5 hPa | 0 mm | - | 167 W/m² | - |
| 1788109980 | 33.33° C | 61% | 1055.3 hPa | 0 mm | - | 749 W/m² | - |
| 1788109674 | 32.22° C | 64% | 1055.7 hPa | 0 mm | - | 796 W/m² | - |
| 1788109374 | 32.78° C | 64% | 1055.7 hPa | 0 mm | - | 843 W/m² | - |
| 1788109073 | 33.33° C | 61% | 1056 hPa | 0 mm | - | 709 W/m² | - |
* Rain latest hour (hover to see other rain measurements)
** Current wind speed in m/s (hover to see current wind gust speed)